Location: Unspecified
(44.4377°N, 88.0525°W)
Time: 03:57:32
(UTC-06:00)

CZ-3 Stage 3 - Pass Details

Date: 01 February 2021
Orbit: 398 x 34787 km, 30.8° (Epoch: 27 February)

Event Time Altitude Azimuth Distance (km) Brightness Sun altitude
Rises 00:09:47 0° 289° (WNW) 14,114 9.0 -62.6°
Reaches altitude 10° 00:24:16 10° 282° (WNW) 16,552 9.2 -62.3°
Maximum altitude 01:23:08 20° 267° (W) 26,120 9.9 -58.1°
Drops below altitude 10° 03:22:35 10° 265° (W) 37,927 10.6 -40.6°
Sets 04:36:05 0° 268° (W) 40,672 10.7 -27.7°
